EDT,Max TemperatureF,Mean TemperatureF,Min TemperatureF,Max Dew PointF,MeanDew PointF,Min DewpointF,Max Humidity, Mean Humidity, Min Humidity, Max Sea Level PressureIn, Mean Sea Level PressureIn, Min Sea Level PressureIn, Max VisibilityMiles, Mean VisibilityMiles, Min VisibilityMiles, Max Wind SpeedMPH, Mean Wind SpeedMPH, Max Gust SpeedMPH,PrecipitationIn, CloudCover, Events, WindDirDegrees
2013-7-1,79,74,71,75,72,71,100,92,83,30.02,29.94,29.87,10,8,0,14,4,26,0.00,8,Fog-Rain,167
2013-7-2,84,78,73,75,73,70,94,85,69,30.17,30.08,30.02,10,9,2,10,4,,0.00,6,Rain,171
2013-7-3,87,78,71,78,73,69,100,87,63,30.23,30.20,30.15,10,6,0,10,2,20,0.00,4,Fog-Rain,164
2013-7-4,89,78,69,75,72,69,100,90,61,30.24,30.21,30.14,10,5,0,10,1,17,0.00,4,Fog,190
2013-7-5,91,80,69,74,70,68,100,85,50,30.21,30.17,30.08,10,5,1,7,1,,0.00,2,,194
2013-7-6,93,82,72,75,72,70,97,73,50,30.14,30.09,30.01,10,9,5,8,2,,0.00,0,,287
2013-7-7,91,82,72,75,72,70,97,77,50,30.05,30.00,29.93,10,10,4,8,2,24,0.02,1,Rain,203
2013-7-8,89,78,68,70,68,67,96,74,49,30.04,30.01,29.96,10,10,10,8,2,,0.00,0,,305
2013-7-9,87,76,66,73,69,64,100,84,53,30.06,30.03,29.99,10,6,2,8,1,,0.02,2,Rain,290
2013-7-10,87,78,71,75,72,70,100,85,61,29.99,29.92,29.81,10,6,1,9,1,,0.00,5,Rain,210
2013-7-11,86,80,71,74,69,61,94,74,53,29.91,29.85,29.79,10,10,8,7,2,,0.00,4,,317
2013-7-12,79,73,68,70,67,61,94,82,64,30.07,30.01,29.91,10,8,2,12,4,21,0.00,7,Rain,34
2013-7-13,84,76,69,75,72,66,100,91,69,30.27,30.21,30.08,10,6,0,8,4,,0.00,7,Fog-Rain,56
2013-7-14,91,82,73,75,73,69,100,84,50,30.34,30.29,30.23,10,7,0,6,1,,0.00,5,Fog,260
2013-7-15,95,82,69,78,72,69,100,80,46,30.25,30.20,30.13,10,8,2,7,1,,0.00,0,,319
2013-7-16,93,81,69,75,71,64,100,79,39,30.20,30.16,30.12,10,6,0,10,1,16,0.00,1,Fog,335
2013-7-17,96,83,71,75,71,67,100,72,40,30.19,30.13,30.05,10,8,2,6,1,,0.00,0,,316
2013-7-18,97,84,71,77,73,71,100,77,46,30.07,30.01,29.95,10,7,1,5,1,,0.00,1,,323
2013-7-19,96,84,73,77,74,72,100,80,49,29.96,29.90,29.79,10,6,1,8,1,,0.00,1,Rain,270
2013-7-20,93,82,73,74,72,69,97,75,47,29.82,29.78,29.73,10,8,2,12,3,,0.00,2,Rain,213
2013-7-21,90,80,71,73,69,64,100,80,48,29.94,29.88,29.84,10,6,1,7,0,,0.00,3,,345
2013-7-22,88,78,70,75,72,66,100,86,63,29.94,29.86,29.78,10,7,2,8,1,,0.00,6,Rain,140
2013-7-23,88,79,70,74,72,69,97,87,59,29.76,29.66,29.56,10,7,1,7,1,,0.00,6,Rain,196
2013-7-24,82,74,66,70,65,52,100,81,47,29.93,29.69,29.62,10,5,0,10,2,,0.00,1,Fog,338
2013-7-25,68,66,63,61,55,50,87,68,58,30.04,30.00,29.93,10,10,10,8,5,,0.00,7,,13
2013-7-26,82,72,62,63,60,56,93,70,41,30.04,30.01,29.99,10,10,10,7,2,,0.00,3,,327
2013-7-27,84,70,57,67,61,56,97,75,49,30.04,30.01,29.93,10,9,2,7,1,18,0.00,0,,162
2013-7-28,81,72,64,72,67,62,100,90,72,29.97,29.94,29.88,10,7,0,13,1,26,0.00,7,Fog-Rain,193
2013-7-29,82,72,62,68,64,52,100,84,35,30.11,29.99,29.94,10,5,0,8,1,,0.01,4,Fog-Rain,303
2013-7-30,81,68,55,64,58,53,100,79,40,30.17,30.13,30.11,10,7,2,9,1,,0.00,1,,315
2013-7-31,82,70,57,63,60,56,100,77,42,30.16,30.10,30.03,10,9,2,5,1,,0.01,1,,220